Home   Weather   Kirchdorf an der Krems   Past weeks

Flag for Austria Past Weather in Kirchdorf an der Krems, Upper Austria, Austria — Yesterday and Last 2 Weeks

Now
44 °F

Quite cool.


Feels Like: 39 °F
Forecast: 31 / 42 °F
Wind: 9 mph from West

Location: Kremsmuenster

Current Time: Feb 24, 2017 at 1:50:41 pm

Latest Report: Feb 24, 2017 at 1:00 pm


Visibility: N/A

Pressure: 29.88 "Hg

Humidity: 67%

Dew Point: 33 °F

Location of Kirchdorf an der KremsLocation

Past Weather in Kirchdorf an der Krems — Graph

°F

Kirchdorf an der Krems Temperature Yesterday

Maximum temperature yesterday: 63 °F (at 4:00 pm)
Minimum temperature yesterday: 49 °F (at 9:00 pm)
Average temperature yesterday: 54 °F

High & Low Weather Summary for the Past Weeks

 TemperatureHumidityPressure
High63 °F (Feb 23, 4:00 pm)94% (Feb 10, 5:00 am)30.69 "Hg (Feb 10, 5:00 am)
Low24 °F (Feb 10, 6:00 am)37% (Feb 23, 10:00 pm)29.50 "Hg (Feb 23, 5:00 pm)
Average38 °F79%30.25 "Hg
* Reported Feb 9 12:00 pm — Feb 24 12:00 pm, Kirchdorf an der Krems, Weather by CustomWeather, © 2017

Note: Actual official high and low records may vary slightly from our data, if they occured in-between our weather recording intervals... More about our weather records

Advertising

Kirchdorf an der Krems Weather History for the Previous 24 Hours

Scroll right to see more
 ConditionsComfort  
Time TempWeatherWind HumidityBarometerVisibility
12:00 pm
Fri, Feb 24
45 °FQuite cool.8 mph65%29.86 "HgN/A
11:00 am44 °FQuite cool.7 mph70%29.87 "HgN/A
10:00 am43 °FOvercast.8 mph74%29.85 "Hg9 mi
9:00 am42 °FQuite cool.8 mph77%29.82 "HgN/A
8:00 am42 °FQuite cool.10 mph79%29.79 "HgN/A
7:00 am43 °FLight rain. Overcast.10 mph76%29.75 "Hg3 mi
6:00 am43 °FQuite cool.9 mph77%29.71 "HgN/A
5:00 am44 °FQuite cool.10 mph77%29.68 "HgN/A
4:00 am53 °FCool.8 mph58%29.58 "HgN/A
3:00 am55 °FRefreshingly cool.12 mph48%29.54 "HgN/A
2:00 am53 °FCool.3 mph45%29.53 "HgN/A
1:00 am55 °FRefreshingly cool.6 mph41%29.50 "HgN/A
12:00 am56 °FRefreshingly cool.7 mph37%29.50 "HgN/A
11:00 pm
Thu, Feb 23
57 °FRefreshingly cool.8 mph37%29.50 "HgN/A
10:00 pm56 °FRefreshingly cool.7 mph37%29.50 "HgN/A
9:00 pm49 °FCool.6 mph56%29.50 "HgN/A
8:00 pm52 °FCool.6 mph63%29.50 "HgN/A
7:00 pm52 °FPassing clouds.No wind71%29.50 "Hg12 mi
6:00 pm55 °FCool.1 mph63%29.50 "HgN/A
5:00 pm59 °FRefreshingly cool.2 mph56%29.50 "HgN/A
4:00 pm63 °FScattered clouds.1 mph47%29.55 "Hg40 mi
3:00 pm63 °FMild.2 mph44%29.59 "HgN/A
2:00 pm63 °FMild.2 mph46%29.63 "HgN/A
1:00 pm59 °FRefreshingly cool.1 mph45%29.69 "HgN/A
Weather by CustomWeather, © 2017

See weather overviewHow to use our weather pages